Ealing Mini Mile
Skip Navigation Links
Results
Live Leaderboard
Ealing Half Event Results
Race Stats
Smartphone Results
Race Website
23 September 2017
HyperLink
Click your name for detailed results
Page 1 of 5 (238 items)
[1]2345
Pos
Bib No
Fav
Share
Print
Name
Gun Time
Chip Time
Category
Cat Pos
Gender
Gen Pos
Club
Pace
111044Ritchie GRANT5:47.85:47.810-111Male1 10.3 m/hr
211244Marcus Tulio Ribeiro DIAS5:52.05:50.110-112Male2 10.2 m/hr
311070Cayo RYDER5:56.75:56.710-113Male3 10.1 m/hr
411188Otto LAWRENCE5:58.05:57.710-114Male4ESM10.1 m/hr
511162Freddie WHYLE6:03.16:02.810-115Male5  9.9 m/hr
611201Tyler OFFIAH6:03.46:03.410-116Male6PERIVALE PARK ATHLETICS CLUB 9.9 m/hr
711166Harvey WILLIAMS6:12.86:12.810-117Male7HILLINGDON AC 9.7 m/hr
811127Hiromasa KUNITA6:12.96:08.610-118Male8  9.7 m/hr
911067Zach POUCHER6:14.66:14.610-119Male9  9.6 m/hr
1011295Dorian GROVER6:22.46:22.110-1110Male10  9.4 m/hr
1111281Olivia SPARKS6:22.96:21.410-111Female1ST AUGUSTINE'S PRIORY 9.4 m/hr
1211282Gemma WICKHAM6:23.26:22.510-112Female2MARSHALL MILTON KEYNES AC 9.4 m/hr
1311109Riya KANTAMANENI6:25.76:24.810-113Female3  9.3 m/hr
1411041Bobby SEABROOKE6:30.46:25.010-1111Male11  9.2 m/hr
1511057Charlotte BROWN6:30.96:30.210-114Female4  9.2 m/hr
1611064Sean HAUGHEY6:34.66:32.310-1112Male12  9.1 m/hr
1711287Finley FULLER6:34.96:32.810-1113Male13  9.1 m/hr
1811276Mariella BROOKE6:35.86:34.010-115Female5BELGRAVE HARRIERS 9.1 m/hr
1911261Mia KIRBY6:37.56:35.310-116Female6  9.1 m/hr
2011228Dominic QUINN6:41.86:40.610-1114Male14EALING EAGLES 9.0 m/hr
2111017Alexander Le BOUEDEC6:42.86:42.810-1115Male15ST BENEDICT'S SCHOOL 8.9 m/hr
2211133Finn ELLIOTT6:46.06:42.610-1116Male16EALING EAGLES 8.9 m/hr
2311271Ashana MCCLUNIE6:46.36:44.810-117Female7ST AUGUSTINE'S PRIORY 8.9 m/hr
2411068George TOYNTON6:51.16:48.510-1117Male17  8.8 m/hr
2511134Woody BANFIELD6:52.66:48.010-1118Male18  8.7 m/hr
2611144Otto STROUTS6:53.36:50.710-1119Male19  8.7 m/hr
2711151Mia De VIVENOT6:54.86:53.210-118Female8EALING EAGLES 8.7 m/hr
2811124Ciara KEATING6:56.16:55.410-119Female9  8.7 m/hr
2911183James HAWORTH6:56.56:56.010-1120Male20  8.6 m/hr
3011148Clement BIRLOUEZ-LEE6:57.06:55.910-1121Male21  8.6 m/hr
3111117Inús JAMES-FITZGERALD6:58.86:55.710-1110Female10  8.6 m/hr
3211198Will FURLONG6:59.86:54.410-1122Male22  8.6 m/hr
3311223Angus MACALLISTER7:00.16:58.210-1123Male23  8.6 m/hr
3411180Emily LEONARD7:00.56:59.910-1124Male24  8.6 m/hr
3511021Harry COLLINSON7:02.17:00.810-1125Male25  8.5 m/hr
3611018Luca VAN DORP7:02.36:59.010-1126Male26  8.5 m/hr
3711147Oliver FLITTER7:05.37:05.010-1127Male27  8.5 m/hr
3811126Teresa STEVENS7:05.67:04.010-1111Female11  8.5 m/hr
3911025Thomas LENNON7:06.97:06.310-1128Male28  8.4 m/hr
4011252Joseph DUBY7:07.37:06.110-1129Male29  8.4 m/hr
4111098Donagh MURPHY7:07.87:02.310-1130Male30  8.4 m/hr
4211080Elio NUTT7:10.17:06.210-1131Male31  8.4 m/hr
4311138Samuel BAKER7:10.37:07.810-1132Male32  8.4 m/hr
4411120Takuma KANEKO7:10.57:07.910-1133Male33  8.4 m/hr
4511280Lily DICKSON7:11.97:06.910-1112Female12  8.3 m/hr
4611149Sam JENKINS7:12.47:12.310-1134Male34  8.3 m/hr
4711005Noah LOVELL7:12.57:09.310-1135Male35  8.3 m/hr
4811115Joseph MCNAMARA7:14.07:06.010-1136Male36  8.3 m/hr
4911288Evie LOVELL7:15.37:12.410-1113Female13  8.3 m/hr
5011154Thomas OFLAHERTY7:15.37:12.510-1137Male37  8.3 m/hr
Page 1 of 5 (238 items)
[1]2345
fb